Weather History for Springfield, MO

Change the Weather History Date:

Saturday, October 19, 2013

  Actual Average Record
Temperature  
Mean Temperature 47 °F 57 °F  
Max Temperature 57 °F 68 °F 88 °F (2005)
Min Temperature 36 °F 46 °F 26 °F (1917)
Degree Days  
Heating Degree Days 18 9  
Month to date heating degree days 122 125  
Since 1 July heating degree days 136 180  
Cooling Degree Days 0 1  
Month to date cooling degree days 44 25  
Year to date cooling degree days 1417 1384  
Moisture  
Dew Point 36 °F    
Average Humidity 66    
Maximum Humidity 92    
Minimum Humidity 40    
Precipitation  
Precipitation T in 0.12 in 1.90 in (1983)
Month to date precipitation 3.64 2.18  
Year to date precipitation 43.97 36.90  
Snow  
Snow 0.00 in - - ()
Month to date snowfall 0.0  
Since 1 July snowfall 0.0  
Since 1 September snowfall 0.0  
Snow Depth 0.00 in    
Sea Level Pressure  
Sea Level Pressure 30.06 in    
Wind  
Wind Speed 9 mph (West)    
Max Wind Speed 16 mph    
Max Gust Speed 21 mph    
Visibility 9 miles    
Events Rain    
T = Trace of Precipitation, MM = Missing Value Source: NWS Daily Summary

Daily Weather History Graph

Daily Weather History Graph

Search for Another Location

Airport:

Trip Planner

Search our weather history database for the weather conditions in past years. The results will help you decide how hot, cold, wet, or windy it might be!

Date:

Astronomy

Oct. 19, 2013 Rise Set
Actual Time 7:25 AM CDT 6:30 PM CDT
Civil Twilight 6:59 AM CDT 6:57 PM CDT
Nautical Twilight 6:28 AM CDT 7:27 PM CDT
Astronomical Twilight 5:58 AM CDT 7:57 PM CDT
Moon 7:00 PM CDT (10/19) 8:02 AM CDT (10/19)
Length of Visible Light 11h 58m
Length of Day
11h 05m
Waxing Gibbous, 99% of the Moon is Illuminated
Oct 19
Waxing Gibbous
Oct 26
Last Quarter
Nov 3
New
Nov 9
First Quarter
Nov 17
Full

Hourly Weather History & Observations

Time (CDT) Temp. Windchill Dew Point Humidity Pressure Visibility Wind Dir Wind Speed Gust Speed Precip Events Conditions
12:10 AM 39.9 °F 32.1 °F 39.0 °F 97% 30.06 in 5.0 mi NNW 13.8 mph - 0.01 in Rain Light Rain
12:18 AM 39.9 °F 32.1 °F 37.9 °F 93% 30.07 in 5.0 mi NNW 13.8 mph - 0.01 in Rain Light Rain
12:52 AM 39.9 °F 32.9 °F 37.9 °F 93% 30.07 in 4.0 mi NNW 11.5 mph - 0.02 in Rain Light Rain
1:52 AM 39.9 °F 33.9 °F 37.9 °F 93% 30.06 in 10.0 mi NNW 9.2 mph - 0.00 in   Overcast
2:52 AM 39.0 °F 31.8 °F 37.9 °F 96% 30.07 in 8.0 mi NW 11.5 mph - N/A   Overcast
3:30 AM 39.0 °F 34.0 °F 37.0 °F 93% 30.05 in 10.0 mi WNW 6.9 mph - N/A   Overcast
3:52 AM 39.0 °F 34.0 °F 37.0 °F 93% 30.06 in 10.0 mi NW 6.9 mph - N/A   Overcast
4:08 AM 39.0 °F 33.4 °F 36.0 °F 89% 30.06 in 10.0 mi WNW 8.1 mph - N/A   Overcast
4:52 AM 37.9 °F 30.9 °F 35.1 °F 89% 30.07 in 10.0 mi NW 10.4 mph - N/A   Overcast
5:28 AM 37.9 °F 33.5 °F 35.1 °F 89% 30.07 in 10.0 mi NW 5.8 mph - N/A   Overcast
5:52 AM 37.0 °F 31.6 °F 35.1 °F 93% 30.08 in 10.0 mi West 6.9 mph - N/A   Overcast
6:52 AM 36.0 °F 32.1 °F 34.0 °F 93% 30.09 in 10.0 mi West 4.6 mph - N/A   Overcast
7:52 AM 36.0 °F 29.6 °F 34.0 °F 93% 30.10 in 10.0 mi West 8.1 mph - N/A   Overcast
8:52 AM 36.0 °F 31.1 °F 34.0 °F 93% 30.11 in 7.0 mi West 5.8 mph - N/A   Overcast
9:07 AM 36.0 °F 29.6 °F 34.0 °F 93% 30.09 in 8.0 mi WSW 8.1 mph - N/A   Overcast
9:27 AM 37.0 °F 29.8 °F 35.1 °F 93% 30.10 in 9.0 mi SW 10.4 mph - N/A   Overcast
9:52 AM 37.9 °F 33.5 °F 34.0 °F 86% 30.12 in 8.0 mi SW 5.8 mph - N/A   Overcast
10:52 AM 42.1 °F 36.6 °F 36.0 °F 79% 30.12 in 10.0 mi WSW 9.2 mph - N/A   Scattered Clouds
11:52 AM 46.9 °F - 37.0 °F 68% 30.11 in 10.0 mi SW 9.2 mph - N/A   Clear
12:52 PM 50.0 °F - 37.9 °F 63% 30.08 in 10.0 mi WSW 11.5 mph 18.4 mph N/A   Clear
1:52 PM 53.1 °F - 39.0 °F 59% 30.05 in 10.0 mi West 8.1 mph 18.4 mph N/A   Clear
2:52 PM 55.0 °F - 35.1 °F 47% 30.03 in 10.0 mi West 8.1 mph - N/A   Clear
3:52 PM 57.0 °F - 34.0 °F 42% 30.03 in 10.0 mi West 13.8 mph 18.4 mph N/A   Clear
4:52 PM 55.9 °F - 33.1 °F 42% 30.02 in 10.0 mi West 11.5 mph - N/A   Clear
5:52 PM 55.0 °F - 34.0 °F 45% 30.01 in 10.0 mi WSW 6.9 mph - N/A   Clear
6:52 PM 48.0 °F - 36.0 °F 63% 30.01 in 10.0 mi SSW 6.9 mph - N/A   Clear
7:52 PM 45.0 °F 40.1 °F 36.0 °F 71% 30.02 in 10.0 mi SSW 9.2 mph - N/A   Clear
8:52 PM 44.1 °F 39.5 °F 37.0 °F 76% 30.03 in 10.0 mi SSW 8.1 mph - N/A   Clear
9:52 PM 43.0 °F 38.2 °F 36.0 °F 76% 30.03 in 10.0 mi South 8.1 mph - N/A   Clear
10:52 PM 45.0 °F 40.1 °F 37.0 °F 74% 30.03 in 10.0 mi South 9.2 mph - N/A   Clear
11:52 PM 43.0 °F 37.7 °F 37.0 °F 80% 30.02 in 10.0 mi South 9.2 mph - N/A   Clear